Location: Unspecified
(0.0000°N, 0.0000°E)
Time: 13:05:11
(UTC+02:00)

ADEOS II - Visible Passes

Search period start: 28 August 2014 00:00
Search period end: 07 September 2014 00:00
Orbit: 800 x 804 km, 98.3° (Epoch: 26 August)

Date Brightness Start Highest point End Pass type
(mag) Time Alt. Az. Time Alt. Az. Time Alt. Az.
28 Aug 5.1 06:39:23 10° ENE 06:41:32 13° ESE 06:43:41 10° SE visible
28 Aug 5.1 20:55:10 10° SW 20:57:50 14° WSW 21:00:31 10° WNW visible
29 Aug 4.3 20:27:29 10° SSW 20:31:58 29° WSW 20:36:27 10° NW visible
30 Aug 3.2 07:24:10 10° NNE 07:29:12 48° ESE 07:34:15 10° S visible
31 Aug 4.5 06:59:11 10° NE 07:03:19 24° ESE 07:07:27 10° SSE visible
01 Sep 5.3 06:35:57 10° E 06:37:27 11° ESE 06:38:57 10° ESE visible
01 Sep 5.0 20:50:42 10° SW 20:53:45 16° WSW 20:56:48 10° WNW visible
02 Sep 4.1 20:23:15 10° SSW 20:27:52 32° WSW 20:32:29 10° NW visible
03 Sep 3.4 07:20:09 10° NNE 07:25:06 44° ESE 07:30:05 10° S visible
04 Sep 4.7 06:55:17 10° NE 06:59:13 22° ESE 07:03:10 10° SSE visible
05 Sep 5.0 20:46:18 10° SW 20:49:39 17° WSW 20:53:01 10° WNW visible
06 Sep 4.0 20:19:02 10° SSW 20:23:47 35° WSW 20:28:31 10° NW visible
